Weather History for Jackson, WY

Change the Weather History Date:

Tuesday, January 29, 2013

  Actual Average Record
Temperature  
Mean Temperature 16 °F -  
Max Temperature 21 °F 26 °F 51 °F (2014)
Min Temperature 10 °F -1 °F -31 °F (1979)
Degree Days  
Heating Degree Days 50    
Moisture  
Dew Point 11 °F    
Average Humidity 86    
Maximum Humidity 100    
Minimum Humidity 63    
Precipitation  
Precipitation 0.01 in - - ()
Sea Level Pressure  
Sea Level Pressure 29.80 in    
Wind  
Wind Speed 3 mph (SSE)    
Max Wind Speed 10 mph    
Max Gust Speed -    
Visibility 7 miles    
Events Snow    
Averages and records for this station are not official NWS values.
T = Trace of Precipitation, MM = Missing Value Source: NWS Daily Summary

Daily Weather History Graph

Daily Weather History Graph

Search for Another Location

Airport:

Trip Planner

Search our weather history database for the weather conditions in past years. The results will help you decide how hot, cold, wet, or windy it might be!

Date:

Astronomy

Jan. 29, 2013 Rise Set
Actual Time 7:42 AM MST 5:30 PM MST
Civil Twilight 7:11 AM MST 6:01 PM MST
Nautical Twilight 6:37 AM MST 6:35 PM MST
Astronomical Twilight 6:03 AM MST 7:09 PM MST
Moon 8:38 PM MST (1/29) 8:34 AM MST (1/29)
Length of Visible Light 10h 49m
Length of Day
9h 48m
Waning Gibbous, 93% of the Moon is Illuminated
Jan 29
Waning Gibbous
Feb 3
Last Quarter
Feb 10
New
Feb 17
First Quarter
Feb 25
Full

Hourly Weather History & Observations

Time (MST) Temp. Windchill Dew Point Humidity Pressure Visibility Wind Dir Wind Speed Gust Speed Precip Events Conditions
12:15 AM 14.0 °F - 12.2 °F 93% 29.74 in 4.0 mi Calm Calm - N/A   Overcast
12:35 AM 14.0 °F 6.5 °F 12.2 °F 93% 29.73 in 5.0 mi South 4.6 mph - N/A   Overcast
12:55 AM 12.2 °F 6.1 °F 12.2 °F 100% 29.72 in 8.0 mi SE 3.5 mph - N/A   Overcast
1:15 AM 14.0 °F 6.5 °F 12.2 °F 93% 29.72 in 10.0 mi South 4.6 mph - N/A   Overcast
1:55 AM 12.2 °F 6.1 °F 12.2 °F 100% 29.71 in 10.0 mi ESE 3.5 mph - N/A   Overcast
2:15 AM 12.2 °F - 10.4 °F 92% 29.70 in 10.0 mi Calm Calm - N/A   Overcast
2:35 AM 12.2 °F - 12.2 °F 100% 29.70 in 8.0 mi Calm Calm - N/A   Overcast
3:15 AM 14.0 °F 5.1 °F 12.2 °F 93% 29.69 in 1.8 mi SW 5.8 mph - N/A   Overcast
3:35 AM 15.8 °F 10.2 °F 12.2 °F 86% 29.69 in 3.0 mi SSW 3.5 mph - N/A   Overcast
3:55 AM 14.0 °F - 12.2 °F 93% 29.69 in 2.0 mi Calm Calm - N/A   Overcast
4:15 AM 12.2 °F - 10.4 °F 92% 29.68 in 1.8 mi Calm Calm - N/A   Overcast
4:35 AM 14.0 °F - 12.2 °F 93% 29.68 in 1.5 mi Calm Calm - N/A   Overcast
4:55 AM 14.0 °F - 12.2 °F 93% 29.69 in 3.0 mi Calm Calm - N/A   Overcast
5:15 AM 15.8 °F 10.2 °F 12.2 °F 86% 29.69 in 1.8 mi South 3.5 mph - N/A   Overcast
5:35 AM 15.8 °F - 12.2 °F 86% 29.69 in 2.0 mi Calm Calm - N/A   Overcast
5:55 AM 14.0 °F - 12.2 °F 93% 29.69 in 1.5 mi Calm Calm - N/A   Overcast
6:15 AM 12.2 °F 6.1 °F 10.4 °F 92% 29.69 in 1.2 mi North 3.5 mph - 0.01 in   Overcast
6:51 AM 12.2 °F - 10.4 °F 92% 29.70 in 2.0 mi Calm Calm - N/A Snow Light Snow
7:51 AM 10.4 °F -2.4 °F 8.6 °F 92% 29.72 in 2.0 mi North 9.2 mph - N/A Snow Light Snow
8:52 AM 10.4 °F 0.8 °F 8.6 °F 92% 29.74 in 3.0 mi North 5.8 mph - N/A Snow Light Snow
9:59 AM 12.2 °F -1.0 °F 10.4 °F 92% 29.76 in 2.0 mi North 10.4 mph - N/A Snow Light Snow
10:59 AM 12.2 °F 6.1 °F 10.4 °F 92% 29.79 in 4.0 mi NNE 3.5 mph - N/A Snow Light Snow
11:51 AM 15.8 °F - 12.2 °F 86% 29.80 in 10.0 mi Calm Calm - N/A   Mostly Cloudy
12:52 PM 15.8 °F - 12.2 °F 86% 29.81 in 10.0 mi Calm Calm - N/A   Scattered Clouds
1:56 PM 17.6 °F - 12.2 °F 79% 29.82 in 10.0 mi Calm Calm - N/A   Scattered Clouds
2:51 PM 17.6 °F - 12.2 °F 79% 29.83 in 10.0 mi Calm Calm - N/A   Scattered Clouds
3:51 PM 19.4 °F 12.8 °F 14.0 °F 80% 29.85 in 10.0 mi East 4.6 mph - N/A   Mostly Cloudy
4:51 PM 21.2 °F 10.9 °F 10.4 °F 63% 29.90 in 10.0 mi West 9.2 mph - N/A   Overcast
5:51 PM 19.4 °F - 10.4 °F 68% 29.93 in 10.0 mi Calm Calm - N/A   Overcast
6:51 PM 17.6 °F - 10.4 °F 73% 29.95 in 10.0 mi Calm Calm - N/A   Overcast
7:52 PM 12.2 °F 6.1 °F 8.6 °F 85% 29.97 in 10.0 mi SE 3.5 mph - N/A   Overcast
8:51 PM 15.8 °F 7.2 °F 8.6 °F 73% 29.98 in 10.0 mi SE 5.8 mph - N/A   Overcast
8:55 PM 12.2 °F - 8.6 °F 85% 29.98 in 10.0 mi Calm Calm - N/A   Mostly Cloudy
9:35 PM 14.0 °F 5.1 °F 10.4 °F 86% 29.97 in 10.0 mi SSE 5.8 mph - N/A   Overcast
9:55 PM 15.8 °F 6.1 °F 10.4 °F 79% 29.96 in 10.0 mi SE 6.9 mph - N/A   Overcast
10:15 PM 15.8 °F 6.1 °F 10.4 °F 79% 29.97 in 10.0 mi West 6.9 mph - N/A   Overcast
10:35 PM 17.6 °F 8.2 °F 10.4 °F 73% 29.96 in 10.0 mi South 6.9 mph - N/A   Overcast
10:55 PM 17.6 °F 5.7 °F 10.4 °F 73% 29.97 in 10.0 mi South 10.4 mph - N/A   Overcast
11:35 PM 19.4 °F 12.8 °F 10.4 °F 68% 29.96 in 8.0 mi SSE 4.6 mph - N/A   Overcast
11:55 PM 19.4 °F 9.5 °F 12.2 °F 74% 29.96 in 10.0 mi SSW 8.1 mph - N/A   Overcast